Regional Weather Roundup
Issued by NWS Goodland, KS

Home | Current Version | Previous Version | Graphics & Text | Print | Product List | Glossary On
Versions: 1 2 3 4 5 6 7 8 9 10 11 12 13 14 15 16 17 18 19 20 21 22 23 24 25 26 27 28 29 30 31 32 33 34 35 36 37 38 39 40 41 42 43 44 45 46 47 48 49 50
000
ASUS43 KGLD 060559
RWRGLD

GOODLAND FORECAST AREA HOURLY WEATHER ROUNDUP
NATIONAL WEATHER SERVICE GOODLAND KS
1200 AM MDT WED MAY 06 2015

...OFFICIAL OBSERVATIONS...

CITY           SKY/WX    TMP DP  RH WIND       PRES   REMARKS
GOODLAND KS    MOCLDY    52  51  97 S18       29.76S
HILL CITY KS   CLOUDY    62  59  90 SE14      29.82F
IMPERIAL NEB   CLOUDY    56  55  97 SE13      29.75F
MCCOOK NEB     MOCLDY    60  57  89 SE18G28   29.77F
AKRON CO       CLOUDY    51  51 100 SE17      29.70F
BURLINGTON CO  CLOUDY    52  50  93 S20       29.75S
LIMON CO       CLOUDY    49  47  93 W6        29.76S
$$

...UNOFFICIAL OBSERVATIONS...

CITY           SKY/WX    TMP DP  RH WIND       PRES   REMARKS
COLBY KS       PTCLDY    55  55 100 SE13      29.78F
GOVE KS          N/A     57  32  39 MISG        N/A
LENORA KS        N/A     59  32  36 MISG        N/A
NORTON KS      CLOUDY    59  55  88 SE14G20   29.81F
SHARON SPRINGS   N/A     52  51  95 MISG        N/A
KIT CARSON CO    N/A     52  50  92 MISG        N/A
YUMA CO          N/A     57  57 100 SE16        N/A
$$



USA.gov is the U.S. government's official web portal to all federal, state and local government web resources and services.